Mackall AAF, NC

5:46 AM EST on November 25, 2017 (GMT -0500)
Mackall Army Air Field

Weather History for KHFF - January, 2012

Change the Weather History Date:

Wednesday, January 4, 2012

  Actual Average Record
Temperature  
Mean Temperature 28 °F -  
Max Temperature 42 °F 54 °F 73 °F (2005)
Min Temperature 14 °F 32 °F 13 °F (2008)
Degree Days  
Heating Degree Days 37    
Moisture  
Dew Point 12 °F    
Average Humidity 57    
Maximum Humidity 93    
Minimum Humidity 23    
Precipitation  
Precipitation 0.00 in - - ()
Sea Level Pressure  
Sea Level Pressure 30.34 in    
Wind  
Wind Speed 4 mph (SW)    
Max Wind Speed 13 mph    
Max Gust Speed -    
Visibility 12 miles    
Events      
Averages and records for this station are not official NWS values.
T = Trace of Precipitation, MM = Missing Value Source: NWS Daily Summary

Daily Weather History Graph

Daily Weather History Graph

Search for Another Location

Airport or City:

Trip Planner

Search our weather history database for the weather conditions in past years. The results will help you decide how hot, cold, wet, or windy it might be!

Date:

Astronomy

Jan. 04, 2012 Rise Set
Actual Time 7:26 AM EST 5:19 PM EST
Civil Twilight 6:58 AM EST 5:47 PM EST
Nautical Twilight 6:26 AM EST 6:18 PM EST
Astronomical Twilight 5:56 AM EST 6:49 PM EST
Moon 1:39 PM EST (1/4) 3:15 AM EST (1/4)
Length of Visible Light 10h 48m
Length of Day
9h 52m
Waxing Gibbous, 80% of the Moon is Illuminated
Jan 4
Waxing Gibbous
Jan 9
Full
Jan 16
Last Quarter
Jan 23
New
Jan 30
First Quarter

Hourly Weather History & Observations

Time (EST) Temp. Windchill Dew Point Humidity Pressure Visibility Wind Dir Wind Speed Gust Speed Precip Events Conditions
12:55 AM 19.4 °F - 12.2 °F 74% 30.42 in 12.0 mi NNW 1.2 mph - N/A   Unknown
12:56 AM 17.6 °F - 10.4 °F 73% 30.42 in 12.0 mi NNW 1.2 mph - N/A   Clear
1:55 AM 15.8 °F - 14.0 °F 93% 30.40 in 12.0 mi Variable 1.2 mph - N/A   Clear
2:55 AM 15.8 °F 7.2 °F 14.0 °F 93% 30.42 in 12.0 mi Variable 5.8 mph - N/A   Unknown
2:56 AM 15.8 °F - 14.0 °F 93% 30.42 in 12.0 mi Variable 2.3 mph - N/A   Clear
3:55 AM 15.8 °F 10.2 °F 14.0 °F 93% 30.43 in 12.0 mi WSW 3.5 mph - N/A   Clear
4:55 AM 15.8 °F - 12.2 °F 86% 30.43 in 12.0 mi West 2.3 mph - N/A   Clear
5:55 AM 15.8 °F - 14.0 °F 93% 30.45 in 12.0 mi SSW 1.2 mph - N/A   Clear
6:55 AM 14.0 °F - 12.2 °F 93% 30.47 in 12.0 mi Variable 1.2 mph - N/A   Clear
8:55 AM 23.0 °F - 15.8 °F 74% 30.48 in 12.0 mi NW 1.2 mph - N/A   Clear
9:55 AM 30.2 °F 26.7 °F 12.2 °F 47% 30.46 in 12.0 mi West 3.5 mph - N/A   Partly Cloudy
10:55 AM 33.8 °F 26.4 °F 8.6 °F 35% 30.45 in 12.0 mi SSW 9.2 mph - N/A   Clear
11:55 AM 37.4 °F 32.8 °F 8.6 °F 30% 30.39 in 12.0 mi SW 5.8 mph - N/A   Clear
12:55 PM 41.0 °F 35.2 °F 5.0 °F 23% 30.33 in 12.0 mi SW 9.2 mph - N/A   Clear
1:55 PM 42.8 °F 38.0 °F 6.8 °F 23% 30.30 in 12.0 mi WSW 8.1 mph - N/A   Clear
2:55 PM 42.8 °F 37.0 °F 8.6 °F 25% 30.27 in 12.0 mi SSW 10.4 mph - N/A   Clear
3:55 PM 42.8 °F 36.6 °F 6.8 °F 23% 30.25 in 12.0 mi SW 11.5 mph - N/A   Clear
4:55 PM 41.0 °F 36.4 °F 10.4 °F 29% 30.22 in 12.0 mi SSW 6.9 mph - N/A   Clear
5:55 PM 37.4 °F 33.8 °F 10.4 °F 33% 30.27 in 12.0 mi SSW 4.6 mph - N/A   Clear
6:55 PM 32.0 °F 28.7 °F 14.0 °F 48% 30.25 in 12.0 mi SSW 3.5 mph - N/A   Partly Cloudy
7:55 PM 32.0 °F 22.5 °F 14.0 °F 48% 30.24 in 12.0 mi SSW 12.7 mph - N/A   Clear
8:55 PM 33.8 °F 25.8 °F 14.0 °F 44% 30.25 in 12.0 mi SSW 10.4 mph - N/A   Clear
9:55 PM 33.8 °F 25.3 °F 15.8 °F 48% 30.21 in 12.0 mi SW 11.5 mph - N/A   Clear
10:55 PM 32.0 °F 23.0 °F 14.0 °F 48% 30.19 in 12.0 mi SW 11.5 mph - N/A   Clear
11:55 PM 33.8 °F 27.0 °F 14.0 °F 44% 30.16 in 12.0 mi SW 8.1 mph - N/A   Clear